This demonstration page uses our WeatherBlox Daily Observations layout. Learn more.

Left ArrowRight Arrow

38.83388, -104.82136

Hourly Observations for August 3, 2022

Temp ( °F °C ) Dew Point ( °F °C ) Humidity (%) Winds ( mph kmh ) Pressure ( in mb ) Visibility ( mi km ) Precip ( " mm )
12:54 am 00:54 Clear 71 21.7 52 11.1 51 51 NW 10 17 29.85 1011 10 16 0.00 0.00
1:54 am 01:54 Clear 70 21.1 51 10.6 51 51 NNW 12 19 29.83 1010 10 16 0.00 0.00
2:54 am 02:54 Mostly Clear 69 20.6 51 10.6 53 53 NNW 10 17 29.83 1010 10 16 0.00 0.00
3:54 am 03:54 Mostly Clear 69 20.6 51 10.6 53 53 NW 7 11 29.83 1010 10 16 0.00 0.00
4:54 am 04:54 Mostly Clear 67 19.4 51 10.6 57 57 NW 5 7 29.85 1011 10 16 0.00 0.00
5:54 am 05:54 Partly Cloudy 68 20 50 10 53 53 NNW 7 11 29.86 1011 10 16 0.00 0.00
6:54 am 06:54 Partly Cloudy 70 21.1 52 11.1 53 53 N 8 13 29.88 1012 10 16 0.00 0.00
7:39 am 07:39 Partly Cloudy 76 24.4 51 10.6 42 42 N 18 30 29.73 1007 10 16 0.00 0.00
7:54 am 07:54 Partly Cloudy 76 24.4 52 11.1 43 43 N 13 20 29.90 1012 10 16 0.00 0.00
8:54 am 08:54 Partly Cloudy 78 25.6 53 11.7 42 42 N 17 28 29.91 1013 10 16 0.00 0.00
9:54 am 09:54 Partly Cloudy 80 26.7 52 11.1 38 38 N 16 26 29.93 1014 10 16 0.00 0.00
10:54 am 10:54 Partly Cloudy 82 27.8 49 9.4 32 32 N 17 28 29.94 1014 10 16 0.00 0.00
11:54 am 11:54 Partly Cloudy 82 27.8 49 9.4 32 32 N 12 19 29.93 1014 10 16 0.00 0.00
12:54 pm 12:54 Partly Cloudy 84 28.9 48 8.9 29 29 NNE 8 13 29.91 1013 10 16 0.00 0.00
1:54 pm 13:54 Mostly Cloudy 78 25.6 54 12.2 43 43 SW 10 17 29.93 1014 10 16 0.00 0.00
2:54 pm 14:54 Mostly Cloudy 86 30 49 9.4 28 28 VRB 3 6 29.89 1012 10 16 0.00 0.00
3:54 pm 15:54 Mostly Cloudy 82 27.8 50 10 33 33 S 6 9 29.91 1013 10 16 0.00 0.00
3:59 pm 15:59 Mostly Cloudy with Nearby Thunderstorms 82 27.8 51 10.6 34 34 S 6 9 29.65 1004 10 16 0.00 0.00
4:54 pm 16:54 Mostly Cloudy with Nearby Thunderstorms 79 26.1 52 11.1 39 39 WNW 18 30 29.94 1014 10 16 0.00 0.00
4:57 pm 16:57 Mostly Cloudy with Thunderstorms 77 25 53 11.7 43 43 WNW 17 28 29.73 1007 10 16 0.00 0.00
5:27 pm 17:27 Mostly Cloudy with Light Rain 78 25.6 52 11.1 40 40 NNW 15 24 29.71 1006 10 16 0.00 0.00
5:54 pm 17:54 Mostly Cloudy 78 25.6 51 10.6 39 39 N 15 24 29.93 1014 10 16 0.00 0.00
6:54 pm 18:54 Mostly Cloudy with Light Rain 73 22.8 56 13.3 55 55 NNW 10 17 29.96 1015 10 16 0.00 0.00
7:54 pm 19:54 Mostly Cloudy 72 22.2 54 12.2 53 53 NW 10 17 29.98 1015 10 16 0.00 0.00
8:54 pm 20:54 Mostly Cloudy with Light Rain 71 21.7 56 13.3 59 59 N 7 11 29.98 1015 10 16 0.00 0.00
9:54 pm 21:54 Mostly Cloudy 71 21.7 56 13.3 59 59 WNW 6 9 30.00 1016 10 16 0.00 0.00
10:54 pm 22:54 Mostly Cloudy 71 21.7 56 13.3 59 59 Calm 29.98 1015 10 16 0.00 0.00
11:54 pm 23:54 Partly Cloudy 67 19.4 57 13.9 71 71 NNE 6 9 29.99 1016 10 16 0.00 0.00

Powered by AerisWeather